Find Globalstar M055

NORAD ID: 25910 Int'l Des: 1999-049 Owner: GLOBT Country: US Constellation: globalstar operational
LEOCIRCULAR

实时位置

正在加载3D地球...

关于 Globalstar M055

正在加载描述...

即将过境

Passes for default location (London). Set your location on the main map for personalized predictions.

高度历史

Loading altitude history...

两行轨道根数

1 25910U 99049D 26104.55454383 -.00000093 00000-0 73138-5 0 9998
2 25910 52.0016 216.6823 0006916 43.6672 316.4726 12.29443047205351
Epoch: Apr 14, 2026 • Age: 17 hours

当前状态

高度 1566.1 km
速度 7.08 km/s
星下点 -40.69°S, 129.29°W
发射日期 Sep 22, 1999
运行时间 26.5 years
类型 communications

技术详情

分类 Payload
质量 450.00 kg
干质量 380.00 kg
总质量 450.00 kg
长度 1.50 m
直径 0.60 m
跨度 12.00 m
形状 Box + 2 Pan
制造商 LOR
平台类型 LS-400
阶段状态 In Orbit
所有者/国家 GLOBT/US

Most Searched